Вернуться в каталог

SL-16 DEB

АктивенLEO
NORAD 39860·DEBRIS·🇷🇺 Russia

Запущен Dec 25, 1992 с Baikonur Cosmodrome

Loading…

Ближайшие Пролёты (ближайшие 24 часа)

TLE

УстаревающийSource: Space-Track

Эпоха: Sep 12, 2026, 09:41 UTC

1 39860U 92093LN  26255.40397725  .00000853  00000-0  32909-3 0  9998
2 39860  70.7858 163.0822 0026920 142.4093 217.8926 14.32975239639049

Отслеживайте SL-16 DEB в реальном времени с AllMySat

Download on the App Store